Location: *
(58.7167°N, 26.1833°E)
Time: 10:12:03
(UTC+00:00)

Cosmos 2098 Rocket - Pass Details

Date: 25 August 2019
Orbit: 367 x 1192 km, 82.9° (Epoch: 15 September)

Event Time Altitude Azimuth Distance (km) Brightness Sun altitude
Rises 18:27:57 0° 347° (NNW) 2,807 7.2 -6.7°
Reaches altitude 10° 18:29:56 10° 348° (NNW) 2,011 6.4 -6.9°
Maximum altitude 18:34:25 86° 76° (ENE) 748 3.5 -7.4°
Drops below altitude 10° 18:40:09 10° 168° (SSE) 2,541 5.8 -8.0°
Enters shadow 18:42:53 - 168° (SSE) 3,606 6.5 -8.3°
